FENGYUN 1C DEB, 29765

Orbit data source: Space-Track

FENGYUN 1C DEB, 29765 is space debris in SSO originally from a launch on Mon, 10 May 1999 UTC launched from the Taiyaun Space Center, China (TSC). Fengyun 1C debris stems from the Chinese weather satellite Fengyun-1C, which was intentionally destroyed by a Chinese anti-satellite missile in 2007. This event dramatically increased the amount of space debris, with thousands of trackable fragments posing hazards to satellites and human spaceflight. The Fengyun 1C debris cloud has become a focal point in discussions about space sustainability and the need for international regulations to prevent the creation of new debris.

Loading next visibility...
Identifier
29765, 1999-025BF
Orbit
SSO
Country
Flag of CNCN / PRC
Related business
Manufacturer
Unknown
Mission
Spacecraft
Bus & Motor
Unknown
Mass
Unknown
Launch date (UTC)
1999-05-10 (27 years ago)
Launch vehicle
Unknown
Launch site
Taiyaun Space Center, China (TSC)
Object type
Payload
Rocket body
Debris
Shape & HBR
Unknown shape, 0.1 m
Radar Cross Section
Medium (>0.1 m² and <1 m²)

Expand to show TLE details & history
Last TLE update: 14 hours ago

TLE from 14 hours ago
0 FENGYUN 1C DEB
1 29765U 99025BF  26256.27503652  .00000320  00000-0  23345-3 0  9990
2 29765  98.8155 270.6621 0058787  47.5526  13.2606 14.02202476  5893
Epoch: 2026-09-13T06:36Z
TLE epoch observation values (Epoch: 2026-09-13T06:36:03.155Z)
Latitude
59.86843°
Longitude
163.96331°
Altitude
854.752 km
Speed
7.452 km/s
True Right ascension
17h 00m 59s
True Declination
59° 43' 15"
Sunlit
Object was in daylight at epoch
Visualization orbit readout
Latitude
Unknown
Longitude
Unknown
Altitude
Unknown
Speed
Unknown
Apparent Right ascension
Unknown
Apparent Declination
Unknown
Sunlit
N/A
Visualization observer readout
Local Sidereal Time
13:35:29
Azimuth
Unknown
Elevation
Unknown
Doppler factor
Unknown
Orbital elements
Apogee altitude
926.054 km
Perigee altitude
840.677 km
Semi-major axis
7,261.503 km
Eccentricity
0.00588
Inclination
98.8155°
RAAN
270.6621°
Arg. of periapsis
47.5526°
True anomaly
13.41623°
Mean anomaly
13.2606°
Eccentric anomaly
13.33831°
Mean motion
3.50755 °/min
Orbital period
102.64 mins
BSTAR
0.00023345
Loading maneuver chart data...
Computing Atmospheric mass density...

Documentation

Showing up to 5 results
|